COSMOS 2058

Last updated on Tue Jul 01 2025 00:02:14 GMT+0000 (Coordinated Universal Time)

1 20465U 90010A 25181.57727571 .00002344 00000+0 14655-3 0 9991 2 20465 82.4763 295.1962 0010269 125.6430 234.5757 15.08951786904198
UTC large
Height (km)
Speed (km/s)
/
Latitude / Longitude
Inclination (degrees)
Orbital Period (minutes)
Azimuth
Elevation
Range (km)
Doppler Factor

Next 0 passes for location: London (51.5072 / 0.1276)

Sorry there are no passes over London.